This is the latest recevied weather packets stored in our database for station/object KD6VEX-1. If no packets are shown the sender has not sent any weather packets the latest 10 day(s).
| Time | Temp. | Humidity | Pressure | Rain* | Wind** | Luminosity | Snow |
|---|---|---|---|---|---|---|---|
| 1778139221 | 12.78° C | 88% | 1018.1 hPa | 0 mm | - | - | - |
| 1778138921 | 12.78° C | 88% | 1018 hPa | 0 mm | - | - | - |
| 1778138621 | 12.78° C | 88% | 1018 hPa | 0 mm | - | - | - |
| 1778138321 | 12.78° C | 89% | 1018.1 hPa | 0 mm | - | - | - |
| 1778138021 | 12.22° C | 89% | 1018.1 hPa | 0 mm | - | - | - |
| 1778137721 | 12.22° C | 89% | 1018.1 hPa | 0 mm | - | - | - |
| 1778137421 | 12.22° C | 89% | 1018.1 hPa | 0 mm | - | - | - |
| 1778137121 | 12.22° C | 89% | 1018.1 hPa | 0 mm | - | - | - |
| 1778136821 | 12.22° C | 89% | 1018.2 hPa | 0 mm | - | - | - |
| 1778136521 | 12.22° C | 90% | 1018.2 hPa | 0 mm | - | - | - |
| 1778136221 | 11.67° C | 90% | 1018.2 hPa | 0 mm | - | - | - |
| 1778135921 | 11.67° C | 90% | 1018.2 hPa | 0 mm | - | - | - |
| 1778135621 | 11.67° C | 90% | 1018.2 hPa | 0 mm | - | - | - |
| 1778135321 | 11.67° C | 90% | 1018.2 hPa | 0 mm | - | - | - |
| 1778135021 | 11.11° C | 89% | 1018.3 hPa | 0 mm | - | - | - |
| 1778134721 | 11.67° C | 89% | 1018.2 hPa | 0 mm | - | - | - |
| 1778134421 | 11.67° C | 89% | 1018.2 hPa | 0 mm | - | - | - |
| 1778134121 | 11.67° C | 89% | 1018.3 hPa | 0 mm | - | - | - |
| 1778133821 | 11.67° C | 89% | 1018.3 hPa | 0 mm | - | - | - |
| 1778133521 | 11.67° C | 88% | 1018.4 hPa | 0 mm | - | - | - |
| 1778133221 | 11.67° C | 88% | 1018.2 hPa | 0 mm | - | - | - |
| 1778132921 | 11.67° C | 88% | 1018.3 hPa | 0 mm | - | - | - |
| 1778132621 | 11.67° C | 88% | 1018.3 hPa | 0 mm | - | - | - |
| 1778132321 | 12.22° C | 87% | 1018.3 hPa | 0 mm | - | - | - |
| 1778132021 | 12.22° C | 87% | 1018.3 hPa | 0 mm | - | - | - |
* Rain latest hour (hover to see other rain measurements)
** Current wind speed in m/s (hover to see current wind gust speed)